Location: Miles
(41.4492°N, 81.6087°W)
Time: 21:57:52
(UTC+00:00)

Courier 1B Rocket - Pass Details

Date: 21 September 2024
Orbit: 920 x 1201 km, 28.2° (Epoch: 09 October)

Event Time Altitude Azimuth Distance (km) Brightness Sun altitude
Rises 20:55:07 0° 248° (WSW) 3,581 9.3 26.3°
Reaches altitude 10° 20:58:08 10° 236° (SW) 2,664 9.1 25.8°
Maximum altitude 21:03:14 25° 183° (S) 1,860 7.0 25.0°
Drops below altitude 10° 21:08:33 10° 131° (SE) 2,801 7.2 24.0°
Sets 21:11:49 0° 118° (ESE) 3,804 7.7 23.5°
